[[{"header":{"parameterUnit":"m.s-1","parameterCategory":1,"la1":30.2991,"la2":30.254,"lo1":-89.0895,"lo2":-89.0444,"dy":0.0017,"dx":0.0017,"nx":28,"ny":28,"refTime":"2025-01-14T09:00:00:Z","depth":0,"parameterNumber":2,"parameterNumberName":"U-component_of_WINDS"},"data":[0,0,0,0,0,0,0,0,0,0,0,0,0,0,0,0,0,0,0,0,0,0,0,0,0,0,0,0,0,0,0,0,0,0,0,0,0,0,0,0,0,0,0,0,0,0,0,0,0,0,0,0,0,0,0,0,0,0,-4.3026,-4.3027,0,-4.3122,-4.3123,-4.3124,-4.3017,-4.3013,-4.3009,-4.3005,-4.3109,-4.3115,-4.3122,0,0,0,0,0,0,0,0,0,0,0,0,0,-4.2753,-4.2758,-4.3026,-4.3027,-4.3028,-4.3122,-4.3123,-4.3125,-4.3017,-4.3012,-4.3008,-4.3003,-4.3107,-4.3114,-4.3122,0,0,0,0,0,0,0,0,0,0,0,0,0,-4.2863,-4.276,-4.3026,-4.2986,-4.2983,-4.3122,-4.3123,-4.3125,-4.3019,-4.3012,-4.3006,-4.3,-4.3104,-4.3114,-4.3123,-4.3307,0,0,-4.3154,-4.3158,0,0,0,0,0,0,0,0,-4.2857,-4.2873,-4.2991,-4.2989,-4.2986,-4.3051,-4.3065,-4.3186,-4.302,-4.3005,-4.3005,-4.2997,-4.3095,-4.3105,-4.3137,-4.3312,-4.3317,-4.3155,-4.3161,-4.3165,-4.3168,0,0,0,0,0,0,0,-4.2849,-4.2868,-4.3064,-4.2992,-4.299,-4.2964,-4.2973,-4.3088,-4.3084,-4.3006,-4.2999,-4.3011,-4.3093,-4.3128,-4.3139,-4.3318,-4.3154,-4.3163,-4.3169,-4.3173,-4.3649,-4.3655,0,0,0,0,0,0,-4.2845,-4.2863,-4.3061,-4.3067,-4.2905,-4.2974,-4.2984,-4.3037,-4.3082,-4.3083,-4.3016,-4.3006,-4.3114,-4.3127,-4.3142,-4.336,-4.3165,-4.3174,-4.318,-4.3642,-4.365,-4.3657,0,0,0,0,0,0,-4.284,-4.2864,-4.3057,-4.2963,-4.2985,-4.2986,-4.3045,-4.3042,-4.3077,-4.309,-4.3089,-4.3053,-4.3109,-4.3128,-4.3267,-4.3363,-4.3178,-4.3187,-4.3634,-4.3645,-4.3654,-4.3799,0,0,0,0,0,0,-4.2833,-4.2863,-4.2932,-4.2965,-4.2991,-4.318,-4.3051,-4.3048,-4.3093,-4.308,-4.3124,-4.3125,-4.3106,-4.3252,-4.3276,-4.3373,-4.3195,-4.3626,-4.3639,-4.3651,-4.3786,-4.3813,-4.3836,0,0,0,0,0,-4.2823,-4.2971,-4.2936,-4.2961,-4.3077,-4.3186,-4.32,-4.3174,-4.3101,-4.3172,-4.318,-4.3123,-4.3347,-4.3267,-4.3294,-4.3395,-4.362,-4.3635,-4.365,-4.3775,-4.3808,-4.3836,0,0,0,0,0,0,-4.2952,-4.2974,-4.2937,-4.3099,-4.3141,-4.3167,-4.3255,-4.321,-4.3275,-4.3261,-4.3227,-4.3238,-4.3385,-4.3403,-4.3314,-4.3574,-4.3472,-4.3493,-4.3558,-4.3589,-4.3614,-4.3608,-4.3203,0,0,0,0,0,-4.2999,-4.3083,-4.3099,-4.324,-4.3263,-4.3256,-4.3302,-4.3278,-4.3321,-4.3339,-4.3357,-4.3402,-4.3482,-4.3536,-4.3611,-4.3787,-4.3795,-4.3869,-4.3894,-4.3915,-4.3934,-4.4029,-4.4062,-4.3707,-4.3707,-4.3707,0,0,-4.3097,-4.312,-4.3176,-4.3267,-4.3297,-4.3386,-4.3272,-4.3372,-4.3438,-4.3354,-4.3486,-4.3501,-4.3549,-4.3707,-4.3778,-4.3727,-4.4033,-4.3934,-4.395,-4.3959,-4.4048,-4.4081,-4.4111,-4.3717,-4.3715,-4.3714,0,0,-4.3323,-4.3348,-4.3469,-4.35,-4.3545,-4.3539,-4.3568,-4.3601,-4.3607,-4.3737,-4.3676,-4.3755,-4.3894,-4.3931,-4.3968,-4.4204,-4.4156,-4.423,-4.4362,-4.4455,-4.4483,-4.4507,-4.4593,-4.4624,-4.4248,-4.4249,-4.4249,0,-4.3441,-4.3572,-4.3537,-4.3641,-4.3683,-4.3608,-4.373,-4.3763,-4.3832,-4.3863,-4.3804,-4.3976,-4.4003,-4.4169,-4.4226,-4.4258,-4.4291,-4.4226,-4.4481,-4.4506,-4.4528,-4.4609,-4.4642,-4.4258,-4.4257,-4.4256,-4.4255,0,-4.3715,-4.3806,-4.3898,-4.3964,-4.4016,-4.4129,-4.4112,-4.4169,-4.414,-4.414,-4.4274,-4.4303,-4.4382,-4.4419,-4.4392,-4.4581,-4.4548,-4.4486,-4.4382,-4.4571,-4.4647,-4.4678,-4.427,-4.4267,-4.4264,-4.4262,0,0,-4.4028,-4.407,-4.4105,-4.4133,-4.4176,-4.4248,-4.4356,-4.4431,-4.4482,-4.453,-4.4622,-4.474,-4.4682,-4.4724,-4.47,-4.4781,-4.4968,-4.4709,-4.4709,-4.4757,-4.5178,-4.5227,-4.5263,-4.4934,-4.4939,-4.4944,-4.5175,0,-4.4255,-4.4443,-4.4414,-4.4596,-4.468,-4.4609,-4.4704,-4.4741,-4.4744,-4.4817,-4.4819,-4.4904,-4.482,-4.4845,-4.4921,-4.4929,-4.5052,-4.4911,-4.5021,-4.5025,-4.5014,-4.5303,-4.5354,-4.5571,-4.5204,-4.5209,-4.5213,0,-4.4547,-4.4604,-4.4794,-4.4822,-4.4857,-4.4943,-4.5009,-4.5079,-4.5119,-4.5115,-4.5161,-4.5122,-4.5231,-4.5124,-4.5275,-4.518,-4.5223,-4.5233,-4.524,-4.5252,-4.5132,-4.5324,-4.5639,-4.5673,-4.5259,-4.5255,-4.5252,0,-4.4758,-4.4882,-4.5012,-4.5038,-4.5074,-4.5137,-4.5155,-4.5189,-4.5236,-4.5293,-4.5323,-4.5394,-4.5433,-4.5489,-4.547,-4.5393,-4.5626,-4.5517,-4.5627,-4.5628,-4.5682,-4.568,-4.6011,-4.5706,-4.5706,-4.5705,-4.5704,0,-4.5017,-4.5136,-4.5107,-4.5187,-4.5319,-4.5283,-4.5415,-4.5425,-4.5455,-4.5537,-4.5479,-4.5557,-4.5526,-4.5602,-4.5588,-4.5716,-4.5734,-4.5735,-4.573,-4.5742,-4.5742,-4.5771,-4.5757,-4.5714,-4.5712,-4.571,-4.5709,0,-4.5277,-4.5261,-4.5398,-4.542,-4.5428,-4.5524,-4.5543,-4.5619,-4.5615,-4.5719,-4.5741,-4.5736,-4.5823,-4.5808,-4.5905,-4.5895,-4.6056,-4.6031,-4.6042,-4.6037,-4.6149,-4.614,-4.6513,-4.6561,-4.6223,-4.6226,-4.6229,0,-4.5444,-4.5534,-4.5564,-4.5613,-4.5636,-4.5716,-4.5762,-4.573,-4.5781,-4.5833,-4.5903,-4.5983,-4.6046,-4.6188,-4.6194,-4.6267,-4.6246,-4.6371,-4.6257,-4.6265,-4.625,-4.6246,-4.6255,-4.6395,-4.6399,-4.6402,-4.6405,0,-4.5743,-4.573,-4.5798,-4.5864,-4.592,-4.5971,-4.6016,-4.606,-4.6032,-4.6092,-4.6179,-4.6227,-4.6324,-4.6406,-4.6474,-4.6493,-4.6446,-4.644,-4.647,-4.6484,-4.6487,-4.6488,-4.6106,-4.6433,-4.643,-4.6428,-4.6426,-4.6425,-4.5963,-4.6039,-4.6072,-4.615,-4.6179,-4.6222,-4.6294,-4.6298,-4.6369,-4.6444,-4.642,-4.6519,-4.6556,-4.6642,-4.6669,-4.6747,-4.67,-4.6743,-4.6755,-4.6766,-4.6781,-4.6472,-4.6759,-4.6758,-4.6757,-4.6756,-4.6756,0,-4.626,-4.6277,-4.6348,-4.6412,-4.6473,-4.6419,-4.6465,-4.6521,-4.6608,-4.6645,-4.6708,-4.6807,-4.6885,-4.6896,-4.697,-4.703,-4.701,-4.705,-4.7047,-4.7053,-4.6817,-4.6785,-4.7065,-4.7065,-4.7065,-4.7065,-4.7065,-4.7065,-4.6423,-4.6549,-4.654,-4.668,-4.6696,-4.6791,-4.6822,-4.6861,-4.6891,-4.7004,-4.7067,-4.7073,-4.71,-4.7175,-4.7244,-4.7245,-4.7276,-4.7326,-4.7319,-4.71,-4.7069,-4.704,-4.7009,-4.7333,-4.7333,-4.7548,-4.755,-4.7552]},{"header":{"parameterUnit":"m.s-1","parameterCategory":1,"la1":30.2991,"la2":30.254,"lo1":-89.0895,"lo2":-89.0444,"dy":0.0017,"dx":0.0017,"nx":28,"ny":28,"refTime":"2025-01-14T09:00:00:Z","depth":0,"parameterNumber":3,"parameterNumberName":"V-component_of_WINDS"},"data":[0,0,0,0,0,0,0,0,0,0,0,0,0,0,0,0,0,0,0,0,0,0,0,0,0,0,0,0,0,0,0,0,0,0,0,0,0,0,0,0,0,0,0,0,0,0,0,0,0,0,0,0,0,0,0,0,0,0,-2.88,-2.8801,0,-2.8826,-2.8826,-2.8826,-2.8794,-2.8793,-2.8792,-2.8791,-2.8817,-2.8818,-2.882,0,0,0,0,0,0,0,0,0,0,0,0,0,-2.8723,-2.8724,-2.88,-2.8801,-2.8801,-2.8826,-2.8826,-2.8826,-2.8794,-2.8793,-2.8792,-2.879,-2.8816,-2.8818,-2.882,0,0,0,0,0,0,0,0,0,0,0,0,0,-2.8753,-2.8725,-2.88,-2.8788,-2.8787,-2.8826,-2.8826,-2.8826,-2.8795,-2.8793,-2.8791,-2.879,-2.8815,-2.8818,-2.882,-2.8872,0,0,-2.8829,-2.883,0,0,0,0,0,0,0,0,-2.8751,-2.8756,-2.879,-2.8789,-2.8788,-2.8805,-2.8808,-2.8842,-2.8795,-2.8792,-2.8791,-2.8789,-2.8814,-2.8817,-2.8825,-2.8873,-2.8874,-2.8829,-2.883,-2.8832,-2.8832,0,0,0,0,0,0,0,-2.8749,-2.8755,-2.881,-2.879,-2.8789,-2.8781,-2.8783,-2.8814,-2.8813,-2.8792,-2.879,-2.8793,-2.8813,-2.8823,-2.8826,-2.8875,-2.8829,-2.8831,-2.8833,-2.8834,-2.8964,-2.8966,0,0,0,0,0,0,-2.8749,-2.8753,-2.8809,-2.8811,-2.8765,-2.8784,-2.8786,-2.8801,-2.8812,-2.8812,-2.8795,-2.8792,-2.8819,-2.8823,-2.8827,-2.8886,-2.8832,-2.8834,-2.8836,-2.8962,-2.8964,-2.8966,0,0,0,0,0,0,-2.8747,-2.8754,-2.8808,-2.8782,-2.8788,-2.8787,-2.8804,-2.8803,-2.8812,-2.8814,-2.8813,-2.8805,-2.8818,-2.8823,-2.886,-2.8887,-2.8835,-2.8838,-2.896,-2.8963,-2.8965,-2.9007,0,0,0,0,0,0,-2.8745,-2.8754,-2.8774,-2.8782,-2.8789,-2.8843,-2.8806,-2.8805,-2.8817,-2.8813,-2.8823,-2.8823,-2.8817,-2.8857,-2.8863,-2.8889,-2.884,-2.8957,-2.8961,-2.8964,-2.9003,-2.9011,-2.9017,0,0,0,0,0,-2.8743,-2.8785,-2.8775,-2.8782,-2.8815,-2.8844,-2.8848,-2.884,-2.8819,-2.8839,-2.884,-2.8823,-2.8883,-2.8861,-2.8868,-2.8895,-2.8956,-2.896,-2.8964,-2.9,-2.9009,-2.9017,0,0,0,0,0,0,-2.8781,-2.8786,-2.8775,-2.8822,-2.8833,-2.8839,-2.8864,-2.885,-2.8868,-2.8863,-2.8852,-2.8855,-2.8895,-2.8899,-2.8874,-2.8945,-2.8916,-2.8922,-2.8941,-2.8949,-2.8956,-2.8954,-2.8842,0,0,0,0,0,-2.8794,-2.8818,-2.8822,-2.8862,-2.8868,-2.8865,-2.8878,-2.887,-2.8881,-2.8886,-2.8889,-2.8901,-2.8921,-2.8936,-2.8955,-2.9003,-2.9004,-2.9026,-2.9033,-2.9038,-2.9044,-2.9068,-2.9077,-2.898,-2.898,-2.898,0,0,-2.8823,-2.8829,-2.8845,-2.887,-2.8878,-2.8902,-2.8869,-2.8897,-2.8915,-2.889,-2.8925,-2.8928,-2.894,-2.8983,-2.9002,-2.8987,-2.907,-2.9044,-2.9048,-2.905,-2.9073,-2.9082,-2.909,-2.8983,-2.8982,-2.8982,0,0,-2.8888,-2.8895,-2.8929,-2.8937,-2.8949,-2.8946,-2.8954,-2.8962,-2.8963,-2.8998,-2.8979,-2.9,-2.9037,-2.9045,-2.9054,-2.912,-2.9105,-2.9127,-2.9163,-2.9187,-2.9195,-2.9201,-2.9224,-2.9232,-2.9132,-2.9132,-2.9132,0,-2.8922,-2.8959,-2.8948,-2.8977,-2.8988,-2.8966,-2.8999,-2.9007,-2.9025,-2.9033,-2.9016,-2.9061,-2.9067,-2.9111,-2.9126,-2.9135,-2.9143,-2.9126,-2.9194,-2.9201,-2.9207,-2.9228,-2.9237,-2.9134,-2.9134,-2.9134,-2.9134,0,-2.9,-2.9025,-2.9051,-2.9067,-2.9081,-2.9112,-2.9106,-2.9121,-2.9112,-2.911,-2.9145,-2.9152,-2.9172,-2.9181,-2.9173,-2.9223,-2.9214,-2.9196,-2.9167,-2.9219,-2.9238,-2.9247,-2.9138,-2.9137,-2.9136,-2.9136,0,0,-2.909,-2.9099,-2.9109,-2.9115,-2.9126,-2.9145,-2.9174,-2.9193,-2.9205,-2.9218,-2.9241,-2.9272,-2.9255,-2.9265,-2.9257,-2.9278,-2.9328,-2.9258,-2.9258,-2.927,-2.9382,-2.9395,-2.9405,-2.9318,-2.932,-2.9321,-2.9381,0,-2.9154,-2.9205,-2.9195,-2.9244,-2.9266,-2.9245,-2.927,-2.9278,-2.9278,-2.9296,-2.9295,-2.9316,-2.9293,-2.9299,-2.9318,-2.9318,-2.935,-2.9314,-2.9339,-2.934,-2.9336,-2.9415,-2.9429,-2.9486,-2.9389,-2.939,-2.9391,0,-2.9236,-2.925,-2.9301,-2.9306,-2.9315,-2.9338,-2.9353,-2.9371,-2.938,-2.9378,-2.9388,-2.9376,-2.9404,-2.9374,-2.9412,-2.9387,-2.9397,-2.9398,-2.94,-2.9402,-2.9369,-2.9418,-2.9504,-2.9512,-2.9403,-2.9402,-2.9401,0,-2.9296,-2.9328,-2.9362,-2.9368,-2.9375,-2.9391,-2.9395,-2.9402,-2.9413,-2.9426,-2.9433,-2.945,-2.9459,-2.9472,-2.9464,-2.9443,-2.9503,-2.9472,-2.9501,-2.9501,-2.9514,-2.9513,-2.9602,-2.9522,-2.9521,-2.9521,-2.9521,0,-2.9368,-2.9399,-2.9388,-2.9409,-2.9444,-2.9432,-2.9466,-2.9467,-2.9473,-2.9493,-2.9476,-2.9495,-2.9484,-2.9502,-2.9496,-2.9527,-2.9532,-2.953,-2.9528,-2.9531,-2.9531,-2.9537,-2.9533,-2.9524,-2.9523,-2.9523,-2.9522,0,-2.944,-2.9434,-2.947,-2.9473,-2.9474,-2.9499,-2.9501,-2.952,-2.9517,-2.9543,-2.9548,-2.9544,-2.9564,-2.9557,-2.9579,-2.9575,-2.9615,-2.9608,-2.9612,-2.961,-2.9638,-2.9635,-2.9733,-2.9744,-2.9657,-2.9658,-2.9659,0,-2.9487,-2.951,-2.9515,-2.9527,-2.9532,-2.9551,-2.9562,-2.9551,-2.9563,-2.9574,-2.9591,-2.961,-2.9624,-2.9657,-2.9655,-2.9672,-2.9665,-2.9698,-2.9667,-2.9669,-2.9664,-2.9662,-2.9664,-2.9704,-2.9705,-2.9706,-2.9706,0,-2.9569,-2.9564,-2.958,-2.9595,-2.9609,-2.962,-2.963,-2.9641,-2.963,-2.9644,-2.9664,-2.9675,-2.9697,-2.9715,-2.9729,-2.9732,-2.9717,-2.9716,-2.9723,-2.9727,-2.9727,-2.9726,-2.9627,-2.9714,-2.9713,-2.9712,-2.9712,-2.9712,-2.9629,-2.9648,-2.9654,-2.9672,-2.9678,-2.9687,-2.9705,-2.9703,-2.972,-2.9736,-2.9728,-2.9751,-2.9757,-2.9775,-2.978,-2.9797,-2.9784,-2.9795,-2.9798,-2.98,-2.9803,-2.9725,-2.98,-2.98,-2.9799,-2.9799,-2.9799,0,-2.9709,-2.9711,-2.9728,-2.9742,-2.9756,-2.974,-2.9749,-2.9762,-2.9782,-2.9789,-2.9803,-2.9825,-2.9842,-2.9842,-2.9857,-2.9871,-2.9864,-2.9875,-2.9874,-2.9875,-2.9815,-2.9806,-2.988,-2.988,-2.988,-2.988,-2.988,-2.988,-2.9753,-2.9784,-2.9779,-2.9813,-2.9815,-2.9836,-2.9843,-2.9851,-2.9856,-2.9881,-2.9895,-2.9894,-2.9898,-2.9913,-2.9928,-2.9927,-2.9933,-2.9947,-2.9943,-2.9887,-2.9879,-2.9871,-2.9864,-2.9948,-2.9948,-3.0002,-3.0002,-3.0003]}]]